Location: Sihaung
(22.8641°N, 94.0549°E)
Time: 12:52:43
(UTC+00:00)

USA 215 - Pass Details

Date: 03 March 2021
Orbit: 1102 x 1105 km, 123.0° (Epoch: 13 April)

Event Time Altitude Azimuth Distance (km) Brightness Sun altitude
Rises 23:21:55 0° 47° (NE) 3,920 6.9 -10.2°
Reaches altitude 10° 23:24:31 10° 54° (NE) 2,961 6.3 -9.6°
Maximum altitude 23:30:44 46° 126° (SE) 1,438 4.4 -8.2°
Drops below altitude 10° 23:36:57 10° 198° (SSW) 2,954 5.4 -6.8°
Sets 23:39:32 0° 204° (SSW) 3,909 6.0 -6.2°
